sat.trackr.live / text

‹ back to catalog

STARLINK-36625

NORAD 67668 · 2026-022W

PAYLOAD ACTIVE UNKNOWN

§ Identity

Operator
Country
US
Launch date
2026-02-02
Launch site
AFWTR
Launch vehicle
Mass (kg)
RCS (m²)

Purposes: comms

External: N2YO · Heavens-Above · Gunter

§ Orbital elements

Epoch: 2026-09-19T08:56:58.455456Z

Period
93.91 min
Inclination
97.2887°
Eccentricity
0.0001145
Mean motion
15.33446148 rev/d
Perigee alt
464.8 km
Apogee alt
466.3 km
Semi-major
6,843.7 km
B*
5.3617e-4
RAAN
293.9422°
Arg perigee
84.8790°
Mean anomaly
275.2584°
Rev number
3,525

§ Raw data

STARLINK-366251 67668U 26022W   26262.37289879  .00017275  00000+0  53617-3 0  99922 67668  97.2887 293.9422 0001145  84.8790 275.2584 15.33446148 35251

JSON: /api/v1/satellites/67668 · /tle

For live sub-satellite position, see the globe view (requires WebGL).

§ Visibility from observer

Set your observer location to see the next 7 days of passes ≥ 10°. The values pass through the URL so the page stays shareable.

No JS? Fill the form by hand. The geolocation button needs JavaScript.